Theta_e
327 329 330 330 332 331 333 329 333 335 336 335 336 337 335 338 339 342 343 342 340 341 341 342 343 344 344 345 346 346 347 346
324 325 327 329 329 330 332 336 338 337 336 337 339 338 337 337 341 341 342 343 340 340 340 340 341 343 344 344 345 344 346 347
324 328 327 327 331 330 331 332 335 337 336 336 336 336 335 332 336 341 341 342 341 337 338 339 340 342 342 343 344 345 345 346
325 324 321 324 326 329 330 332 332 333 333 333 333 333 331 330 330 336 341 341 341 339 336 337 339 340 342 342 343 343 344 345
325 324 325 326 325 325 325 326 332 331 331 331 329 329 329 329 329 330 331 337 341 342 338 337 338 340 341 341 342 342 342 343
324 325 326 328 327 326 326 327 329 330 331 330 330 330 329 328 329 330 331 334 338 341 341 338 338 338 340 341 341 342 342 343
325 322 326 327 327 327 326 327 327 328 328 329 328 329 331 329 333 333 331 334 338 339 340 341 340 340 340 341 341 341 342 342
327 326 327 327 327 327 327 327 328 328 328 328 332 333 337 336 336 336 330 334 334 335 336 338 340 341 341 341 341 341 341 342
325 325 327 327 326 326 326 326 327 328 328 335 337 337 335 333 335 333 334 335 337 337 337 332 333 338 339 341 341 341 341 342
322 325 328 326 326 326 327 330 331 334 335 335 333 331 331 333 333 332 333 334 333 336 337 339 331 331 336 339 340 341 341 341
321 322 323 324 326 326 328 333 333 333 331 330 329 330 332 332 330 333 333 334 336 336 337 339 336 330 331 337 339 340 341 341
321 321 322 323 323 326 326 327 328 330 329 327 327 331 332 329 333 334 334 334 330 331 336 338 333 331 331 335 339 340 340 340
324 323 322 323 326 327 328 328 329 328 326 326 328 329 330 332 335 337 338 332 332 333 339 337 332 331 331 334 337 339 340 341
323 324 325 324 326 327 325 325 327 324 325 326 329 330 332 334 335 337 342 330 328 334 342 337 333 332 334 336 339 340 341 342
323 324 325 324 324 323 323 325 323 324 324 325 327 330 333 335 336 341 340 344 347 352 347 341 337 338 340 341 342 343 343 345
323 322 324 324 323 322 324 321 322 324 324 324 327 328 334 336 337 343 344 346 350 355 353 347 345 345 348 344 345 346 348 351
320 319 318 319 320 321 321 321 321 323 323 324 327 329 335 336 340 345 346 349 351 355 352 349 350 350 349 348 349 351 352 354
320 317 318 318 319 319 320 320 321 323 324 327 327 334 339 340 343 345 344 347 351 350 352 351 352 351 350 351 352 353 353 348
318 317 317 318 318 319 320 319 320 323 326 328 328 336 339 344 341 342 343 346 349 350 348 347 349 351 352 354 354 353 349 341
Wind_Speed
8 6 5 4 7 6 7 1 3 3 6 12 1 10 10 8 11 19 27 26 29 27 28 27 29 31 34 33 30 29 28 27
4 2 3 7 7 4 3 5 7 5 4 11 11 13 12 11 5 14 22 26 28 28 29 28 28 30 31 32 31 30 30 30
3 4 3 3 5 3 3 3 8 8 7 4 6 9 10 11 7 12 19 25 29 32 30 27 29 29 30 32 34 35 33 32
8 0 6 5 3 4 5 6 3 4 11 4 4 6 9 15 16 7 17 27 35 35 32 34 33 31 32 32 33 33 32 32
5 4 3 1 3 4 2 0 7 7 6 3 7 10 14 17 16 13 12 22 27 32 39 38 37 36 37 36 34 32 31 31
12 11 4 8 5 5 4 4 3 7 8 13 11 15 19 22 21 19 15 14 23 27 37 44 39 36 35 35 36 37 35 34
12 11 8 13 17 15 13 13 8 10 8 18 12 13 18 20 22 22 20 12 10 22 34 45 45 43 39 37 34 35 37 38
12 13 16 21 20 19 19 17 14 17 18 12 10 13 19 19 21 21 18 20 18 13 24 33 42 45 45 42 40 36 36 40
17 12 14 17 23 23 23 19 17 18 13 6 12 9 16 26 19 17 26 27 24 20 18 21 31 38 45 43 39 38 37 38
11 8 18 15 6 2 9 1 3 3 3 5 13 23 21 11 9 26 30 32 35 31 27 22 20 28 36 38 42 38 37 39
9 13 18 13 8 11 8 5 2 2 4 10 17 19 1 4 27 29 33 36 34 34 35 34 24 26 26 32 38 38 37 40
7 15 12 2 9 12 6 13 3 3 6 12 17 7 4 28 33 36 35 36 45 45 43 34 30 25 26 31 36 38 42 38
19 14 9 8 4 1 14 2 3 6 11 13 8 10 26 34 33 32 34 41 43 44 42 31 28 21 28 30 36 35 37 37
11 16 22 4 4 7 4 2 3 9 13 16 19 22 24 31 31 34 35 42 44 42 35 26 23 19 23 28 32 35 33 32
6 6 6 5 6 6 2 1 10 13 14 17 21 24 26 29 34 32 33 33 33 30 26 21 16 16 22 28 32 31 28 26
11 10 13 14 12 14 6 8 11 15 19 21 23 25 27 25 30 31 30 28 25 18 13 16 12 15 21 22 21 25 30 34
23 22 26 28 26 21 12 13 15 15 21 26 25 29 28 28 26 27 27 22 17 9 14 13 10 12 17 21 27 33 38 39
19 26 25 23 22 22 22 22 23 21 25 24 24 27 28 26 24 24 22 19 16 10 13 12 15 18 24 28 32 37 38 32
32 42 40 35 31 26 27 28 23 22 21 23 26 25 25 22 23 22 18 15 12 13 14 16 19 27 29 33 35 35 32 28
Wind_Direction
212 236 206 186 216 280 254 176 245 289 277 284 298 323 323 337 222 207 203 205 214 218 221 224 222 224 225 225 222 225 227 230
293 215 192 231 149 196 209 242 245 211 267 281 329 330 350 353 257 217 207 204 211 217 222 225 227 226 226 228 228 223 228 232
247 218 177 177 208 207 222 227 255 261 254 205 276 330 336 344 313 223 213 216 212 212 224 226 224 223 221 223 226 228 229 232
269 330 277 234 265 236 236 199 232 281 258 277 292 331 333 341 347 265 228 217 216 220 216 226 227 225 220 218 224 228 231 233
264 177 148 181 132 100 47 188 210 238 266 127 33 351 343 330 342 341 273 235 219 215 222 227 235 232 226 222 217 221 224 228
260 296 333 282 266 250 263 239 205 231 290 300 344 342 336 334 337 351 342 261 230 218 219 225 230 237 235 228 221 223 225 226
254 252 262 271 279 276 246 246 245 256 250 282 326 316 317 318 329 348 5 358 258 237 227 227 231 235 239 238 232 224 223 224
263 270 269 268 265 261 261 254 251 252 260 286 297 302 313 327 337 344 2 4 355 306 264 253 240 236 239 240 240 233 228 227
264 265 273 270 254 247 250 246 240 244 250 307 299 300 321 317 334 347 340 336 335 332 321 274 265 257 247 241 240 237 231 230
267 249 244 246 235 248 262 262 204 141 34 326 310 309 308 305 14 339 334 331 332 329 321 318 272 260 258 249 241 235 233 230
238 227 257 248 241 223 204 155 37 4 352 333 328 313 107 75 341 335 329 327 320 325 321 322 289 265 254 250 245 232 231 230
209 233 241 294 233 287 247 247 19 4 354 343 344 317 314 326 327 326 326 326 329 329 324 317 301 267 252 238 238 236 232 228
224 238 258 262 294 152 199 166 35 352 335 330 320 307 307 315 319 321 323 327 326 323 318 314 299 268 250 240 237 233 229 219
226 234 246 331 245 242 18 302 327 328 327 322 313 310 315 313 317 322 323 327 325 322 316 312 300 271 250 239 230 221 216 211
230 213 128 71 53 349 266 160 327 321 319 319 313 311 313 310 313 317 318 320 323 318 313 304 285 257 239 226 220 210 195 190
280 257 237 265 287 300 230 304 314 310 312 315 306 307 304 304 307 309 310 313 318 311 293 282 256 232 220 221 209 186 169 169
263 261 271 266 268 273 257 302 313 301 304 306 307 308 304 299 297 298 302 306 305 263 279 261 229 209 202 186 179 170 163 162
250 255 254 262 265 272 278 286 299 299 303 298 303 304 300 289 291 292 292 290 283 265 253 214 192 179 168 162 162 156 148 147
252 253 255 258 263 270 272 276 272 282 283 291 300 303 297 289 293 289 287 268 243 214 198 169 155 142 144 147 152 148 138 132